Terminal Aerodrome Forecast
Issued by NWS

Home | Current Version | Previous Version | Text Only | Print | Product List | Glossary On
Versions: 1 2 3 4 5 6 7 8 9 10 11 12 13 14 15 16 17 18 19 20
000
FTUS44 KTSA 261401 AAB
TAFFYV
TAF AMD
KFYV 261401Z 2614/2712 00000KT 1SM BR VV002
      TEMPO 2614/2615 3SM BR BKN005
     FM261500 VRB03KT P6SM SCT010
     FM262300 14011G17KT P6SM VCTS BKN050CB
     FM270200 15010KT 3SM TSRA OVC035CB
     FM270600 17006KT P6SM VCTS BKN030CB=

USA.gov is the U.S. government's official web portal to all federal, state and local government web resources and services.